Regional Weather Roundup
Issued by NWS Charleston, SC

Current Version | Previous Version | Graphics & Text | Print | Product List | Glossary On
Versions: 1 2 3 4 5 6 7 8 9 10 11 12 13 14 15 16 17 18 19 20 21 22 23 24 25 26 27 28 29 30 31 32 33 34 35 36 37 38 39 40 41 42 43 44 45 46 47 48 49 50
000
ASUS42 KCHS 010528
RWRCHS

REGIONAL WEATHER ROUNDUP
NATIONAL WEATHER SERVICE CHARLESTON SC
100 AM EDT SUN MAY 01 2016

NOTE: "FAIR" INDICATES FEW OR NO CLOUDS BELOW 12,000 FEET WITH NO
SIGNIFICANT WEATHER AND/OR OBSTRUCTIONS TO VISIBILITY.

NOT ALL STATIONS ARE QUALITY CONTROLLED. USE DATA WITH CAUTION...
ESPECIALLY DEWPOINT OBSERVATIONS.

SCZ027-030-031-034>040-042>050-010600-
...SOUTHEAST SOUTH CAROLINA...

CITY           SKY/WX    TMP DP  RH WIND       PRES   REMARKS
N CHARLESTON   PTCLDY    73  66  78 SE14      30.08R
WATERFRONT PRK   N/A     73  70  90 SE15      30.06R
MOUNT PLEASANT FAIR      72  66  83 SE6       30.09S
JOHNS ISLAND   MOCLDY    73  70  88 E9G15     30.08S
PINOPOLIS        N/A     72  68  88 VRB2      30.01R
MONCKS CORNER  FAIR      66  63  88 CALM      30.08F
SUMMERVILLE    FAIR      70  70 100 CALM      30.08F
BEAUFORT MCAS  MOCLDY    75  69  81 SE6       30.06S
BEAUFORT ARPT  FAIR      73  68  83 SE6       30.06S
HILTON HEAD IS CLOUDY    73  72  94 E5        30.07S
WALTERBORO     CLOUDY    72  72 100 E5        30.08S
ALLENDALE      MOCLDY    72  68  88 SE5       30.05S

...SOUTHERN MIDLANDS AND PEE DEE...

CITY           SKY/WX    TMP DP  RH WIND       PRES   REMARKS
GEORGETOWN     FAIR      68  66  94 E10       30.10F
KINGSTREE      CLOUDY    68  63  83 E8        30.09S
ORANGEBURG     MOCLDY    72  67  84 SE6       30.07F
BARNWELL       CLOUDY    73  73 100 SE8       30.06F
AIKEN          CLOUDY    70  64  83 SE9       30.08F
MANNING        NOT AVBL
COLUMBIA       CLOUDY    73  66  78 SE13      30.05S
SUMTER         CLOUDY    69  64  84 SE13      30.07S
FLORENCE       CLOUDY    67  61  81 SE12      30.10F
MYRTLE BEACH   CLOUDY    70  61  73 SE10      30.12S
N MYRTLE BEACH CLOUDY    68  65  90 E12       30.10R

$$

GAZ063-065-086>088-099>101-113>116-118-119-134>141-150-010600-
...SOUTHEAST GEORGIA...

CITY           SKY/WX    TMP DP  RH WIND       PRES   REMARKS
SAVANNAH ARPT  CLOUDY    76  69  79 SE12      30.05S
HUNTER AAF     CLOUDY    75  73  94 SE6       30.03S
FORT STEWART   CLOUDY    73  70  88 CALM      30.02F
STATESBORO     CLOUDY    76  74  92 SE3       30.05S
SYLVANIA       CLOUDY    73  71  93 CALM      30.06S
CLAXTON        MOCLDY    73  72  96 E3        30.04F

...CSRA...CENTRAL AND FAR SOUTHEAST GEORGIA...

CITY           SKY/WX    TMP DP  RH WIND       PRES   REMARKS
THOMSON        CLOUDY    74  71  88 SE3       30.07F
AUGUSTA-BUSH   CLOUDY    73  67  81 SE6       30.03S
AUGUSTA-DANIEL CLOUDY    74  66  76 SE9       30.04F
SWAINSBORO     CLOUDY    73  70  88 SE8       30.04R
VIDALIA        CLOUDY    73  70  88 SE3       30.04R
EASTMAN        FAIR      71  71 100 CALM      30.05R
HAZLEHURST     FAIR      75  70  85 S6        30.02R
ALMA           CLOUDY    71  69  93 SE6       30.02S
WAYCROSS       CLOUDY    74  71  90 SE6       30.02F
JESUP          CLOUDY    73  72  94 CALM      30.04F
BAXLEY         CLOUDY    73  73 100 S3        30.02S
BRUNSWICK      CLOUDY    79  73  83 SE7       30.05R
SAINT SIMONS   CLOUDY    74  72  93 SE7       30.04S

$$

SCZ027-028-034-036>038-045-046-048>050-GAZ119-141-010600-
...LAKE AND SUPPLEMENTAL COASTAL OBSERVATIONS...

STATION/POSITION TIME  TEMP    WIND        PRES    WAVE   SWELL
                       AIR SEA DIR/SP/G            HT/PER HT/PER/DIR
                 (UTC) (F)     (DEG/KT/KT) (MB)    (FT/S) (FT/S/D)
WINYAH BAY       0400   69     100/ 12     1018.0
LAKE MURRAY      0400   73     140/ 12/ 18 1016.9S
ACE BASIN NERRS  0400   73     120/  3     1018.0
FORT PULASKI     0500   75 73  110/  7/ 10 1017.9S
SAPELO ISLAND    0500   75     150/  6     1017.0S

$$

ANZ835-935-AMZ111-154-330-350-352-354-370-450-454-472-010600-
...C-MAN AND BUOY OBSERVATIONS...

STATION/POSITION TIME  TEMP    WIND        PRES    WAVE   SWELL
                       AIR SEA DIR/SP/G            HT/PER HT/PER/DIR
                 (UTC) (F)     (DEG/KT/KT) (MB)    (FT/S) (FT/S/D)
BUOY 41004       0450   74 73  110/ 19/ 23 1017.9R   4/ 6   2/ 8
BUOY 41008       NOT AVBL
FOLLY BEACH CMAN 0500   73     120/ 13/ 14 1018.7R
CAPERS NEARSHORE 0408   73 72  120/ 14/ 21 1017.8F
FRIPP NEARSHORE  0508   74 73  130/ 10/ 12 1017.4F


STATION/POSITION TIME  TEMP    WIND        PRES    WAVE   SWELL
                       AIR SEA DIR/SP/G            HT/PER HT/PER/DIR
                 (UTC) (F)     (DEG/KT/KT) (MB)    (FT/S) (FT/S/D)
5E ST. MARYS GA  0421      74                N/A     2/ 9
FRYING PAN BUOY  0500   72 70  110/ 12/ 17 1019.1S
BUOY 41025       0450   66 74   40/ 14/ 17 1020.5F   5/ 9   5/ 50/ 9
CAPE LOOKOUT NC  0500   63      50/ 12/ 13 1020.3F
BUOY 41002       0450   71      80/ 14/ 16 1020.5R   5/10   3/ 20/10
BUOY 41010       0420   77 77   90/ 10/ 10 1017.7F
ST AUGUSTINE FL  0500   73 73  150/  9/ 10 1017.7F


$$




USA.gov is the U.S. government's official web portal to all federal, state and local government web resources and services.